Home   Weather   Greece   Corfu   Past weeks
Flag for Greece

Past Weather in Corfu, Greece — Yesterday and Last 2 Weeks

Currently: 79 °F. Sunny. (Weather station: Kerkyra Airport, Greece). See more current weather

Past Weather in Corfu — Graph

°F

Corfu Temperature Yesterday

Maximum temperature yesterday: 75 °F (at 1:50 pm)
Minimum temperature yesterday: 59 °F (at 2:50 am)
Average temperature yesterday: 68 °F

High & Low Weather Summary for the Past Weeks

 TemperatureHumidityPressure
High86 °F (Apr 30, 4:20 pm)100% (May 6, 7:20 am)30.09 "Hg (May 6, 7:20 am)
Low50 °F (Apr 25, 6:20 am)33% (Apr 26, 4:50 pm)29.77 "Hg (Apr 28, 5:50 am)
Average68 °F67%29.93 "Hg
* Reported Apr 23 5:20 pm — May 8 5:50 pm, Corfu. Weather by CustomWeather, © 2021

Note: Actual official high and low records may vary slightly from our data, if they occured in-between our weather recording intervals... More about our weather records

Corfu Weather History for the Previous 24 Hours

Scroll right to see more
 ConditionsComfort  
Time TempWeatherWind HumidityBarometerVisibility
5:50 pm
Sat, May 8
79 °FSunny.14 mph61%29.86 "Hg10 mi
5:20 pm81 °FSunny.15 mph62%29.86 "Hg10 mi
4:50 pm81 °FSunny.15 mph62%29.86 "Hg10 mi
4:20 pm81 °FSunny.9 mph54%29.86 "Hg10 mi
3:50 pm81 °FSunny.7 mph54%29.86 "Hg10 mi
3:20 pm81 °FSunny.No wind54%29.86 "Hg10 mi
2:50 pm81 °FSunny.5 mph54%29.86 "Hg10 mi
2:20 pm81 °FSunny.6 mph54%29.89 "Hg10 mi
1:50 pm81 °FSunny.7 mph54%29.89 "Hg10 mi
1:20 pm77 °FSunny.3 mph61%29.89 "Hg10 mi
12:50 pm77 °FSunny.No wind61%29.89 "Hg10 mi
12:20 pm73 °FSunny.3 mph61%29.89 "Hg10 mi
11:50 am73 °FSunny.5 mph61%29.89 "Hg10 mi
11:20 am72 °FSunny.3 mph61%29.86 "Hg10 mi
10:50 am72 °FSunny.7 mph61%29.86 "Hg10 mi
10:20 am70 °FSunny.5 mph69%29.89 "Hg10 mi
9:50 am70 °FSunny.No wind69%29.89 "Hg10 mi
9:20 am68 °FSunny.3 mph73%29.86 "Hg10 mi
8:50 am64 °FSunny.No wind78%29.86 "Hg10 mi
8:20 am61 °FSunny.No wind88%29.86 "Hg10 mi
7:50 am59 °FSunny.No wind94%29.86 "Hg10 mi
7:20 am59 °FSunny.No wind88%29.86 "Hg10 mi
6:50 am59 °FSunny.No wind88%29.86 "Hg10 mi
6:20 am59 °FClear.No wind94%29.86 "Hg10 mi
5:50 am59 °FClear.No wind94%29.86 "Hg10 mi
2:50 am61 °FClear.No wind94%29.89 "Hg10 mi
11:50 pm
Fri, May 7
63 °FClear.No wind88%29.89 "Hg10 mi
11:20 pm66 °FClear.No wind88%29.89 "Hg10 mi
10:50 pm66 °FClear.No wind88%29.89 "Hg10 mi
10:20 pm68 °FClear.No wind78%29.89 "Hg10 mi
9:50 pm68 °FClear.No wind78%29.89 "Hg10 mi
9:20 pm68 °FClear.3 mph78%29.89 "Hg10 mi
8:50 pm70 °FClear.No wind73%29.89 "Hg10 mi
7:50 pm70 °FPassing clouds.No wind73%29.86 "HgN/A
7:20 pm72 °FPassing clouds.3 mph69%29.89 "HgN/A
Weather by CustomWeather, © 2021

See weather overview